COSMOS 1275 DEB

Satellite information

Favourite Embed

Satellite Type and Status

DEBRISIN ORBIT

Key statistics

Satellite COSMOS 1275 DEB at a glance.

Uptime

16214

Days in orbit

Revolutions

≈ 13.9

Per day

Orbit

LEO

Low Earth Orbit

Inclination

82.8

Latest

Satellite identification and parameters

Extended collection of information and parameters for COSMOS 1275 DEB.

Object identification

Identified? True

Debris? True

Object name: COSMOS 1275 DEB

International designator: 1981-053RG

Object number (NORAD): 42144

Object ID (CCSDS): 42144

Country: COMMONWEALTH OF INDEPENDENT STATES (CIS)

Current information (Y/N): Y

RCS size: SMALL

Orbital parameters

Period: 103.699 minutes

Inclination: 82.8061 deg

SMA: 7311.552 km

Apoapsis: 976.265 km

Periapsis: 890.569 km

RAAN: 133.2676 deg

Eccentricy: 0.00586032

Argument of periapsis: 51.4695 deg

Mean anomaly: 324.9925 deg

Mean motion: 13.88635819 rev/day

Mean motion (dot): 0.00001013 rev/day2

B* drag term: 0.00081727227 1/REarth

Two-line elements (TLE)

Creation date: Oct. 16, 2025, 2:37 a.m.

Reference frame: TEME

Reference center: EARTH

Epoch: Oct. 15, 2025, 7:35 p.m. UTC

TLE line 0: 0 COSMOS 1275 DEB

TLE line 1: 1 42144U 81053RG 25288.81628771 .00001013 00000-0 81727-3 0 9990

TLE line 2: 2 42144 82.8061 133.2676 0058603 51.4695 324.9925 13.88635819601678

Live tracking on map

Real-time ground track for satellite COSMOS 1275 DEB.

In-orbit conjunctions

A list of the most updated potential collisions computed for object COSMOS 1275 DEB.

Target Orbit TCA Probability of collision Miss distance Type
SL-8 R/B LEO 2025-06-25 05:35:51 0.0002400614 937.0 (m) ROCKET BODY
FENGYUN 1C DEB SSO 2025-03-24 20:09:15 0.0001112132 180.0 (m) DEBRIS
METEOR 2-11 DEB LEO 2024-11-14 01:29:18 0.0001574076 649.0 (m) DEBRIS

Associated space launch

Navigation satellite providing location information for the Tsiklon-B navigation system

COSMOS 1275 DEB was lifted into orbit during the mission ‘Kosmos-3M | Parus 27’, on board a Kosmos-3M space rocket.

The launch took place on June 4, 1981, 3:41 p.m. from 132/2.

For more information about the launch, click the button.

Launch to space Kosmos-3M | Parus 27
Kosmos-3M | Parus 27

Agency: N/A

Status: Launch Successful

Launch date: June 4, 1981, 3:41 p.m. UTC

Rocket: Kosmos-3M

Launch pad: 132/2

Location: Plesetsk Cosmodrome, Russian Federation

...

Latest news about this satellite

There are no fresh news available about this satellite. Check back as we update our databases every day.


Newsletter sign-up

Weekly statistics, charts and insights to help you stay on top of the space industry.